Location: San Bernardino
(34.1083°N, 117.2898°W)
Time: 16:33:28
(UTC+00:00)

ARGOS - Pass Details

Date: 13 April 2024
Orbit: 818 x 835 km, 98.4° (Epoch: 19 May)

Event Time Altitude Azimuth Distance (km) Brightness Sun altitude
Rises 12:44:55 0° 14° (NNE) 3,363 6.8 -7.8°
Reaches altitude 10° 12:47:17 10° 16° (NNE) 2,425 6.1 -7.4°
Maximum altitude 12:52:39 75° 102° (ESE) 851 3.4 -6.3°
Drops below altitude 10° 12:57:58 10° 188° (S) 2,403 5.4 -5.2°
Sets 13:00:18 0° 190° (S) 3,331 6.1 -4.8°
